User: anonymous   Login
Location: Bretagne
(43.8474°N, 0.4650°W)
Time: 23:58:35
(UTC+00:00)
Language:

Cosmos 1302 Rocket - Orbit

View from above orbital plane
View from above orbital plane
View from above satellite
View from above satellite

Ground track
Ground track

The orbit is defined by the following mean orbital elements,

1 12792U          26065.06455760 +.00000000 +00000-0 +99013-4 0 00002
2 12792  74.0282 290.3864 0013347 167.1814 192.9683 14.39007155    07
Epoch (UTC): 06 March 2026 01:32:57
Eccentricity: 0.0013347
inclination: 74.0282°
perigee height: 752 km
apogee height: 771 km
right ascension of ascending node: 290.3864°
argument of perigee: 167.1814°
revolutions per day: 14.39007155
mean anomaly at epoch: 192.9683°

The dashed part of the orbit path shows where the satellite is in the earth's shadow,  

DLR